P43P Weather Reports


time (UTC)temp
C
wind
direction
speed
KPH
gust
KPH
rain 1hr
cm
rain 24hr
cm
rain mn
cm
humidity
%
barometer
mb
20260505041555 27 108 32.2 61.2 0.00 0.00 0.00 82 1011.6
20260505041052 26 110 30.6 56.3 0.00 0.00 0.00 82 1011.6
20260505040549 26 108 35.4 64.4 0.00 0.00 0.00 82 1011.5
20260505040047 27 97 38.6 53.1 0.00 0.00 0.00 82 1011.7
20260505035542 27 86 46.7 64.4 0.00 0.00 0.00 82 1011.6
20260505035039 26 96 38.6 64.4 0.00 0.00 0.00 82 1011.5
20260505034536 27 120 35.4 61.2 0.00 0.00 0.00 82 1011.7
20260505034033 27 132 32.2 48.3 0.00 0.00 0.00 82 1011.7
20260505033530 27 127 30.6 53.1 0.00 0.00 0.00 82 1011.7
20260505033028 27 101 41.8 72.4 0.00 0.00 0.00 82 1011.8
20260505032525 27 104 33.8 56.3 0.00 0.00 0.00 82 1011.9
20260505032022 27 107 35.4 48.3 0.00 0.00 0.00 82 1011.8
20260505031519 27 128 49.9 69.2 0.00 0.00 0.00 82 1011.7
20260505031015 27 145 45.1 61.2 0.00 0.00 0.00 82 1011.8
20260505030512 27 107 35.4 53.1 0.00 0.00 0.00 82 1011.6
20260505030008 27 114 33.8 72.4 0.00 0.00 0.00 82 1011.7
20260505025504 27 122 40.2 64.4 0.00 0.00 0.00 82 1011.6
20260505025004 27 118 32.2 53.1 0.00 0.00 0.00 82 1011.7
20260505024500 27 112 48.3 69.2 0.00 0.00 0.00 81 1011.8
20260505023957 27 108 43.5 61.2 0.00 0.00 0.00 81 1011.6
20260505023454 27 137 25.7 48.3 0.00 0.00 0.00 82 1011.7
20260505022952 27 103 40.2 64.4 0.00 0.00 0.00 81 1011.6
20260505022449 27 120 40.2 61.2 0.00 0.00 0.00 81 1011.5
20260505021946 27 108 29.0 48.3 0.00 0.00 0.00 81 1011.5
20260505021442 27 129 30.6 53.1 0.00 0.00 0.00 81 1011.4
20260505020938 27 109 41.8 53.1 0.00 0.00 0.00 80 1011.5
20260505020433 27 119 38.6 61.2 0.00 0.00 0.00 80 1011.3
20260505015931 27 184 38.6 53.1 0.00 0.00 0.00 80 1011.4
20260505015428 27 102 43.5 53.1 0.00 0.00 0.00 80 1011.4
20260505014925 27 131 46.7 56.3 0.00 0.00 0.00 80 1011.3
20260505014421 27 120 41.8 61.2 0.00 0.00 0.00 80 1011.1
20260505013919 27 114 43.5 64.4 0.00 0.00 0.00 79 1011.0
20260505013416 27 97 45.1 77.2 0.00 0.00 0.00 79 1010.9
20260505012914 27 105 35.4 61.2 0.00 0.00 0.00 79 1010.9
20260505012411 27 125 40.2 56.3 0.00 0.00 0.00 79 1010.8
20260505011907 27 123 45.1 61.2 0.00 0.00 0.00 79 1010.6
20260505011404 27 117 41.8 45.1 0.00 0.00 0.00 79 1010.6
20260505010901 27 111 45.1 72.4 0.00 0.00 0.00 79 1010.5
20260505010356 27 109 45.1 61.2 0.00 0.00 0.00 79 1010.4
20260505005853 27 117 46.7 69.2 0.00 0.00 0.00 78 1010.6
20260505005349 27 136 41.8 77.2 0.00 0.00 0.00 78 1010.5
20260505004847 27 124 51.5 69.2 0.00 0.00 0.00 78 1010.5
20260505004343 27 127 61.2 69.2 0.00 0.00 0.00 79 1010.4
20260505003841 27 113 41.8 64.4 0.00 0.00 0.00 79 1010.3
20260505003338 27 118 49.9 72.4 0.00 0.00 0.00 78 1010.6
20260505002834 27 109 56.3 77.2 0.00 0.00 0.00 79 1010.3
20260505002331 27 110 54.7 80.5 0.00 0.00 0.00 78 1010.4
20260505001829 27 95 57.9 64.4 0.00 0.00 0.00 78 1010.4
20260505001326 27 100 32.2 61.2 0.00 0.00 0.00 78 1010.4
20260505000823 27 138 51.5 64.4 0.00 0.00 0.00 78 1010.3
20260505000321 27 124 53.1 61.2 0.00 0.00 0.00 79 1010.5
20260504235817 27 95 45.1 69.2 0.00 0.00 0.00 79 1010.3
20260504235314 27 126 30.6 72.4 0.00 0.00 0.00 79 1010.3
20260504234811 27 102 38.6 72.4 0.00 0.00 0.00 79 1010.3
20260504234309 27 97 48.3 72.4 0.00 0.00 0.00 79 1010.3
20260504233805 27 143 53.1 64.4 0.00 0.00 0.00 79 1010.0
20260504233300 27 105 40.2 53.1 0.00 0.00 0.00 79 1010.1
20260504232758 27 110 43.5 56.3 0.00 0.00 0.00 79 1010.1
20260504232255 27 106 30.6 56.3 0.00 0.00 0.00 78 1009.9
20260504231751 27 121 38.6 69.2 0.00 0.00 0.00 78 1010.0
20260504231248 27 97 33.8 64.4 0.00 0.00 0.00 78 1009.9
20260504230744 27 142 46.7 61.2 0.00 0.00 0.00 78 1009.9
20260504230242 27 115 33.8 61.2 0.00 0.00 0.00 78 1009.7
20260504225741 27 121 43.5 64.4 0.00 0.00 0.00 78 1009.7
20260504225237 27 126 37.0 64.4 0.00 0.00 0.00 77 1010.0
20260504224734 27 98 33.8 61.2 0.00 0.00 0.00 77 1009.7
20260504224231 27 78 30.6 48.3 0.00 0.00 0.00 77 1009.6
20260504223727 27 116 48.3 64.4 0.00 0.00 0.00 77 1009.5
20260504223223 28 105 32.2 53.1 0.00 0.00 0.00 77 1009.5
20260504222720 28 119 33.8 64.4 0.00 0.00 0.00 76 1009.5
20260504222217 28 96 37.0 53.1 0.00 0.00 0.00 76 1009.6
20260504221714 28 115 30.6 53.1 0.00 0.00 0.00 76 1009.5
20260504221211 28 149 29.0 69.2 0.00 0.00 0.00 76 1009.5
20260504220708 28 97 17.7 61.2 0.00 0.00 0.00 76 1009.2
20260504220206 28 101 35.4 48.3 0.00 0.00 0.00 76 1009.4
20260504215702 28 109 32.2 48.3 0.00 0.00 0.00 76 1009.3
20260504215159 28 114 33.8 53.1 0.00 0.00 0.00 76 1009.1
20260504214655 28 134 35.4 61.2 0.00 0.00 0.00 76 1009.2
20260504214151 28 119 48.3 77.2 0.00 0.00 0.00 75 1009.2
20260504213648 28 107 38.6 48.3 0.00 0.00 0.00 76 1009.3
20260504213145 28 130 43.5 64.4 0.00 0.00 0.00 76 1009.2
20260504212641 28 124 43.5 56.3 0.00 0.00 0.00 75 1009.1
20260504212138 28 113 37.0 61.2 0.00 0.00 0.00 75 1009.0
20260504211636 28 128 45.1 64.4 0.00 0.00 0.00 74 1009.2
20260504211132 28 120 33.8 56.3 0.00 0.00 0.00 75 1008.9
20260504210630 28 118 38.6 72.4 0.00 0.00 0.00 74 1008.9
20260504210126 29 115 30.6 56.3 0.00 0.00 0.00 75 1009.0
20260504205623 29 108 35.4 69.2 0.00 0.00 0.00 74 1009.0
20260504205121 29 105 49.9 69.2 0.00 0.00 0.00 73 1009.3
20260504204619 29 137 27.4 45.1 0.00 0.00 0.00 74 1009.3
20260504204118 29 144 40.2 56.3 0.00 0.00 0.00 74 1009.2
20260504203616 29 109 35.4 61.2 0.00 0.00 0.00 74 1009.2
20260504203113 29 124 32.2 80.5 0.00 0.00 0.00 74 1009.4
20260504202608 29 119 49.9 72.4 0.00 0.00 0.00 73 1009.3
20260504202105 29 106 46.7 72.4 0.00 0.00 0.00 73 1009.3
20260504201602 29 145 46.7 72.4 0.00 0.00 0.00 73 1009.3
20260504201100 29 106 51.5 69.2 0.00 0.00 0.00 74 1009.3
20260504200556 29 122 48.3 64.4 0.00 0.00 0.00 73 1009.5
20260504200053 29 115 54.7 77.2 0.00 0.00 0.00 73 1009.4
20260504195549 29 101 38.6 80.5 0.00 0.00 0.00 73 1009.5
20260504195046 30 158 43.5 61.2 0.00 0.00 0.00 71 1009.5
20260504194542 30 133 38.6 64.4 0.00 0.00 0.00 73 1009.6
20260504194038 30 137 45.1 64.4 0.00 0.00 0.00 73 1009.7
20260504193535 30 123 54.7 69.2 0.00 0.00 0.00 72 1009.6
20260504193034 30 156 45.1 72.4 0.00 0.00 0.00 72 1009.8
20260504192531 30 88 45.1 61.2 0.00 0.00 0.00 72 1009.9
20260504192029 30 122 49.9 64.4 0.00 0.00 0.00 71 1009.9
20260504191527 30 131 41.8 77.2 0.00 0.00 0.00 72 1010.0
20260504191023 30 132 46.7 69.2 0.00 0.00 0.00 72 1010.0
20260504190519 30 127 59.5 80.5 0.00 0.00 0.00 71 1010.1
20260504190015 30 99 29.0 61.2 0.00 0.00 0.00 72 1010.2
20260504185512 30 164 32.2 56.3 0.00 0.00 0.00 72 1010.2
20260504185009 30 109 43.5 69.2 0.00 0.00 0.00 71 1010.0
20260504184509 30 107 37.0 61.2 0.00 0.00 0.00 72 1010.1
20260504184005 30 112 51.5 72.4 0.00 0.00 0.00 72 1010.2
20260504183503 30 130 45.1 64.4 0.00 0.00 0.00 71 1010.5
20260504183000 30 126 46.7 72.4 0.00 0.00 0.00 71 1010.4
20260504182457 30 118 37.0 53.1 0.00 0.00 0.00 70 1010.3
20260504181955 30 110 37.0 80.5 0.00 0.00 0.00 70 1010.5
20260504181451 30 113 45.1 80.5 0.00 0.00 0.00 70 1010.6
20260504180950 30 118 43.5 53.1 0.00 0.00 0.00 69 1010.7
20260504180449 30 67 37.0 72.4 0.00 0.00 0.00 70 1010.8
20260504175947 30 128 40.2 56.3 0.00 0.00 0.00 70 1010.8
20260504175443 30 131 48.3 64.4 0.00 0.00 0.00 71 1010.9
20260504174941 30 117 45.1 72.4 0.00 0.00 0.00 70 1010.9
20260504174438 30 127 38.6 72.4 0.00 0.00 0.00 71 1011.3
20260504173936 30 117 59.5 72.4 0.00 0.00 0.00 70 1011.3
20260504173432 30 128 37.0 80.5 0.00 0.00 0.00 71 1011.2
20260504172930 30 115 48.3 72.4 0.00 0.00 0.00 69 1011.5
20260504172425 30 117 43.5 64.4 0.00 0.00 0.00 71 1011.4
20260504171922 30 131 51.5 88.5 0.00 0.00 0.00 69 1011.5
20260504171419 30 107 53.1 72.4 0.00 0.00 0.00 69 1011.7
20260504170916 30 129 53.1 72.4 0.00 0.00 0.00 69 1011.8
20260504170412 30 120 49.9 72.4 0.00 0.00 0.00 70 1011.9
20260504160331 30 112 51.5 69.2 0.00 0.00 0.00 69 1012.9
20260504150756 30 130 49.9 69.2 0.00 0.00 0.00 69 1013.0
20260504150253 30 126 41.8 61.2 0.00 0.00 0.00 70 1013.3
20260504141223 29 106 59.5 88.5 0.00 0.00 0.00 70 1013.4
20260504140719 30 133 45.1 72.4 0.00 0.00 0.00 69 1013.6
20260504140214 29 85 32.2 56.3 0.00 0.00 0.00 70 1013.2
20260504130643 28 130 37.0 61.2 0.00 0.00 0.00 74 1013.1
20260504130140 28 128 38.6 64.4 0.00 0.00 0.00 74 1012.9
20260504120104 27 127 37.0 69.2 0.00 0.00 0.00 76 1012.7
20260504110531 27 104 29.0 45.1 0.00 0.00 0.00 79 1012.1
20260504100453 26 110 22.5 40.2 0.00 0.00 0.00 78 1011.7
20260504081846 26 104 40.2 53.1 0.00 0.00 0.00 78 1010.5
20260504081343 26 110 30.6 56.3 0.00 0.00 0.00 78 1010.6
20260504080839 26 138 33.8 61.2 0.00 0.00 0.00 77 1010.2
20260504080336 26 123 38.6 61.2 0.00 0.00 0.00 77 1010.4
20260504070303 26 109 37.0 61.2 0.00 0.00 0.00 78 1010.7
20260504060224 26 113 30.6 61.2 0.00 0.00 0.00 79 1011.3
20260504050651 26 114 45.1 56.3 0.00 0.00 0.00 79 1011.7
20260504050148 26 127 29.0 45.1 0.00 0.00 0.00 80 1011.6